Presure
187 148 184 196 173 206 191 198 212 216 200 192 191 206 228 240 265 247 245 204 222 210 218 199 230 196 211 205 184 190 190 179 176 185 193 191 186 180 179 126 143 138 130 112
158 178 177 189 198 179 204 175 205 180 200 193 195 182 198 209 223 235 224 240 239 245 223 232 202 203 199 222 203 214 199 213 211 199 190 184 185 193 194 194 193 165 178 138
178 172 186 189 185 202 205 185 171 202 184 199 190 194 226 250 239 212 221 250 224 247 253 250 235 225 224 230 227 226 197 191 218 220 209 213 214 214 209 194 205 196 189 131
169 169 183 183 173 200 197 187 196 200 182 198 172 197 194 200 162 185 204 215 243 255 250 247 264 249 266 262 265 251 249 252 254 255 259 230 229 229 230 231 236 238 226 213
177 102 178 179 178 194 187 190 194 184 197 206 217 200 189 204 207 216 249 194 224 248 256 260 259 255 252 257 289 353 344 338 332 320 284 260 251 254 252 250 259 228 223 225
145 149 176 171 169 180 187 195 185 197 193 191 185 200 208 196 196 208 232 255 236 237 253 251 257 251 242 294 328 316 308 305 298 295 292 291 296 300 314 244 240 244 252 263
165 171 175 171 177 173 170 181 183 185 188 191 186 205 191 204 195 197 215 233 259 226 250 248 266 234 237 282 285 300 294 284 279 271 264 303 331 320 298 273 286 288 244 261
155 176 175 176 179 174 190 194 186 170 176 197 193 193 202 202 197 197 203 220 222 241 230 254 213 220 259 226 272 298 279 281 278 268 253 294 298 302 308 313 314 304 265 268
159 171 174 169 171 176 187 176 186 173 164 178 177 182 197 200 197 189 204 216 222 265 240 235 235 230 211 264 254 265 293 273 267 267 261 243 255 271 276 282 290 296 303 308
159 175 173 169 169 175 183 165 176 185 177 176 195 176 201 194 204 199 191 210 212 231 245 267 233 244 216 214 243 265 254 277 271 250 264 267 255 235 246 253 255 261 269 277
162 165 176 168 168 173 179 177 177 185 173 182 183 184 193 201 197 193 203 196 211 220 223 246 245 227 208 204 216 223 260 257 249 256 265 248 248 253 255 250 246 244 244 251
170 158 171 166 167 174 179 174 177 183 184 182 191 180 187 178 197 195 194 209 193 216 223 219 258 237 223 226 211 260 251 251 249 240 234 241 241 242 229 239 241 245 243 252
149 184 170 167 175 177 180 179 187 168 182 176 183 187 184 190 192 205 193 207 195 214 221 233 256 239 249 221 205 231 225 220 256 239 253 258 239 249 250 252 230 242 243 253
145 174 174 169 174 173 176 176 163 173 178 175 185 187 178 188 187 203 189 195 198 210 215 228 261 249 235 226 220 240 224 224 240 263 263 256 234 258 252 247 258 230 229 231
165 181 177 174 163 169 173 184 177 183 170 176 182 183 187 187 179 196 205 209 203 208 201 216 231 252 236 231 255 226 244 205 239 238 226 239 250 248 229 230 258 268 241 239
150 177 178 170 169 172 173 177 192 175 177 181 140 185 177 179 185 187 199 193 205 211 205 215 225 249 236 232 246 225 231 227 232 223 238 247 247 241 205 243 243 261 220 214
169 171 169 173 175 165 174 177 185 175 167 175 174 179 182 180 183 195 195 201 203 193 219 222 230 247 242 232 226 224 245 212 229 251 238 243 247 213 251 244 244 242 241 231
171 169 175 175 168 172 172 169 179 186 165 177 176 178 180 188 179 191 192 195 203 212 222 225 226 247 248 235 233 227 247 218 216 243 243 252 238 245 248 244 242 253 255 248
180 170 185 172 177 163 171 165 178 172 173 169 181 180 169 183 189 188 200 200 193 212 228 218 226 244 256 237 232 220 237 254 260 238 247 240 249 253 243 237 252 255 254 249
164 179 167 171 160 177 173 161 178 177 182 178 181 180 169 176 189 194 192 191 196 209 230 218 235 246 237 239 229 225 246 246 241 250 250 239 250 236 231 255 247 254 262 264
174 170 172 170 175 159 167 179 152 180 172 185 169 181 179 180 191 201 201 192 202 207 226 230 237 249 238 234 238 258 254 236 243 255 245 252 245 238 251 250 251 244 262 262
172 168 175 176 171 171 182 182 177 180 175 176 172 172 174 188 194 177 190 206 199 220 219 244 239 250 231 237 236 236 254 240 250 248 239 240 250 249 250 248 252 262 256 262
171 168 163 168 173 179 180 179 172 178 177 171 180 181 181 189 190 199 191 203 207 230 222 245 245 238 218 233 211 221 239 250 247 245 251 251 249 250 251 261 258 260 260 260
160 183 169 156 186 175 187 153 174 173 173 174 173 188 182 195 176 193 206 203 210 229 225 247 250 239 224 237 252 238 253 250 259 241 240 251 249 257 261 262 266 263 266 276
176 163 170 185 187 177 179 173 172 185 179 169 181 183 189 180 193 198 199 204 214 231 228 252 243 222 231 262 242 247 246 254 250 240 242 240 242 258 258 264 270 277 276 287
164 181 178 168 175 180 164 169 177 173 174 189 181 187 193 192 200 205 201 213 226 233 249 252 236 219 237 232 253 236 246 244 245 250 250 259 260 267 277 291 299 319 492 476
Wind_Speed
58 27 49 43 30 30 23 24 20 16 10 9 14 16 19 22 35 40 48 57 46 70 64 67 78 94 94 100 98 102 103 90 83 92 100 98 93 84 81 77 89 88 82 70
50 46 42 48 42 29 26 15 18 14 9 13 15 22 20 23 23 28 34 36 41 50 54 62 76 83 91 87 95 100 104 104 108 110 104 95 94 102 101 102 100 87 88 86
57 59 50 44 38 33 32 18 15 15 7 18 17 14 31 33 28 26 25 33 38 41 48 53 62 70 76 79 86 92 89 94 101 103 105 109 109 107 107 99 104 102 100 77
60 61 51 46 34 45 38 31 28 30 17 29 25 23 28 31 45 42 31 30 34 37 40 45 48 58 56 62 68 83 86 89 93 95 97 99 101 101 100 98 97 98 103 103
54 39 50 50 43 49 37 33 33 22 38 34 41 41 26 37 40 42 41 37 37 39 41 43 46 47 52 56 62 57 56 56 59 65 81 96 99 101 103 104 105 99 99 99
62 51 49 52 41 48 46 43 35 37 35 38 31 43 46 41 42 45 56 41 40 39 39 43 47 46 51 49 48 48 49 51 54 56 58 62 66 69 71 102 103 103 103 105
59 57 52 51 52 46 34 41 39 40 38 40 36 48 44 46 43 43 53 61 46 45 43 43 45 41 48 42 43 41 42 44 48 52 57 42 34 42 61 77 75 83 104 103
60 54 54 51 53 50 53 51 45 32 33 47 44 43 54 49 47 48 52 58 58 51 47 47 41 43 45 45 46 43 40 39 40 43 48 33 32 34 36 39 45 58 83 84
62 57 54 56 54 53 55 47 50 40 34 42 40 42 54 55 50 44 55 62 65 55 55 48 46 45 49 48 48 48 35 38 37 37 38 46 41 35 34 34 38 43 46 51
63 56 56 56 56 54 56 41 47 50 45 44 53 42 61 51 58 56 47 65 59 70 62 54 52 49 49 50 48 46 46 35 34 39 35 35 39 46 41 40 40 42 45 48
57 58 52 58 57 56 58 55 53 51 46 51 50 51 60 65 57 52 65 55 69 71 67 67 55 52 51 53 52 52 43 44 45 39 35 41 42 41 41 44 46 50 49 51
55 63 58 61 59 59 58 54 54 54 54 57 61 50 58 52 66 62 59 74 55 77 74 68 58 58 54 50 52 41 42 40 41 47 52 43 42 47 52 48 51 56 55 55
66 47 63 62 59 61 63 59 60 50 56 57 57 57 59 67 70 78 67 76 63 84 82 80 62 59 56 55 52 50 49 49 41 43 40 38 45 41 42 42 58 55 56 50
58 58 63 59 58 60 60 62 51 55 58 57 62 60 54 70 69 81 65 66 70 81 82 83 65 62 59 59 55 57 54 52 50 45 43 45 43 41 39 41 41 61 67 64
59 55 62 57 53 58 63 65 61 62 58 61 63 63 68 73 60 80 87 86 79 83 70 82 84 69 65 62 56 58 58 53 56 54 51 51 49 47 50 57 44 47 55 59
62 59 62 58 56 59 64 63 64 60 61 65 53 69 59 64 72 71 87 74 89 89 81 87 87 73 69 66 62 62 64 58 63 57 60 58 55 52 70 57 51 55 69 75
61 63 60 62 59 55 64 66 64 62 61 67 65 70 70 70 74 88 86 90 91 71 95 93 89 77 71 69 67 66 70 62 67 66 66 64 62 59 65 61 59 64 64 65
59 64 62 60 60 59 64 63 70 65 66 70 71 73 75 86 70 88 79 84 93 103 102 97 91 83 74 72 71 70 73 69 67 72 72 70 64 69 70 68 66 76 79 74
60 62 62 60 63 58 64 63 69 66 70 70 77 80 62 81 92 91 100 97 85 109 105 97 95 86 76 74 73 69 76 74 73 75 75 75 75 75 71 65 78 82 82 80
59 63 59 63 59 65 66 63 69 70 76 77 80 83 68 72 96 102 98 93 96 110 104 101 96 87 79 75 75 73 76 76 78 78 78 78 80 72 67 86 83 89 94 93
60 59 63 64 65 63 66 70 58 73 71 82 71 85 82 85 100 105 103 90 105 111 107 105 99 89 84 80 80 80 80 81 84 83 83 84 84 81 90 90 93 86 100 98
59 60 65 65 65 68 74 73 71 73 76 80 77 75 75 99 104 72 95 113 102 118 111 106 102 92 87 89 87 83 86 88 89 88 89 90 92 93 96 96 101 105 98 102
60 62 64 66 71 75 73 72 74 80 82 78 89 92 92 102 103 108 101 113 119 113 114 106 101 93 85 92 81 85 92 91 91 92 95 96 97 100 103 107 108 109 111 108
61 70 66 59 75 72 74 65 76 80 81 84 83 99 95 109 75 104 117 117 123 117 114 110 101 98 90 97 95 97 96 95 96 92 95 102 104 110 111 112 115 112 115 120
68 65 66 77 77 74 76 77 80 92 90 79 93 98 108 88 111 117 115 120 122 117 115 108 103 92 99 95 101 101 101 102 101 98 101 100 101 116 113 115 119 119 119 121
68 73 71 71 76 80 74 78 89 88 85 103 98 105 108 110 117 118 116 126 124 120 114 107 101 93 101 103 104 101 104 105 107 112 112 118 121 126 124 123 122 124 59 55
Wind_Direction
346 327 1 13 348 26 21 30 40 31 6 305 302 314 312 293 280 277 278 259 273 260 265 263 266 262 260 259 265 264 264 264 265 266 263 265 267 264 263 260 249 251 253 259
327 343 351 1 6 346 23 339 18 321 13 329 328 279 301 300 302 296 281 280 275 273 271 274 266 261 259 265 263 264 264 265 265 265 266 264 264 265 264 265 264 259 261 260
332 336 341 354 356 1 11 351 305 15 271 338 305 303 358 351 325 305 306 294 279 278 274 272 267 268 268 269 266 266 267 268 265 266 263 265 265 262 261 260 263 260 256 259
330 330 337 344 342 358 356 352 3 4 312 352 334 340 331 337 291 290 306 303 299 288 281 277 281 271 281 273 273 268 269 269 268 268 268 266 267 268 266 264 263 261 261 258
320 300 331 335 343 348 346 348 354 337 359 351 1 350 336 347 343 340 341 301 315 311 298 298 296 289 285 284 288 295 291 287 285 281 269 267 266 265 266 267 266 259 259 259
331 312 326 328 328 339 341 347 345 353 351 351 342 355 354 344 341 343 354 331 326 319 311 309 304 299 297 302 300 295 290 287 283 280 276 273 271 268 265 265 266 265 263 261
319 315 319 322 328 333 327 336 341 344 343 346 341 356 344 348 342 338 347 351 334 328 322 318 314 308 304 314 313 303 295 289 284 280 277 286 286 277 267 263 263 264 263 260
318 310 314 322 325 328 336 342 339 321 332 345 342 344 350 346 343 341 342 348 345 336 325 325 306 308 322 310 323 309 306 301 296 290 283 305 302 295 289 282 274 268 260 260
312 309 311 315 319 324 329 328 335 328 307 332 329 336 346 345 341 336 342 346 347 343 336 324 327 317 305 328 328 324 312 305 302 300 295 289 295 299 297 298 293 288 280 275
309 305 308 309 315 321 324 315 326 332 328 325 343 325 348 339 344 340 334 343 343 349 343 330 329 324 318 320 326 322 318 318 310 299 302 299 291 285 287 288 287 288 287 285
305 308 303 304 312 318 321 320 323 330 324 332 333 332 344 343 339 336 341 335 344 346 344 341 331 326 316 319 322 325 320 316 314 315 317 300 300 298 295 291 286 280 279 280
295 305 298 302 310 315 319 317 320 328 331 331 339 329 337 324 339 337 337 340 333 343 343 339 333 331 325 321 318 322 323 314 310 304 303 297 296 295 291 290 287 285 284 285
304 297 295 302 307 314 317 318 323 321 328 323 332 335 333 342 338 339 336 338 337 342 342 343 333 332 327 322 312 324 325 326 310 304 300 303 286 286 283 293 286 284 283 277
308 292 293 301 308 313 315 316 317 319 320 321 330 335 326 339 334 338 331 333 336 339 340 340 331 330 328 323 318 327 326 326 324 310 309 308 287 308 283 276 287 276 279 282
289 292 291 300 307 310 313 317 318 320 313 322 328 332 336 335 326 335 338 337 336 336 332 337 337 330 329 327 321 326 322 312 321 321 315 313 309 306 279 283 303 316 266 267
301 290 292 299 305 310 311 316 320 314 320 324 304 329 325 326 330 330 334 333 335 335 333 334 336 331 329 327 325 323 323 317 322 318 319 315 315 309 282 312 301 312 277 281
284 288 294 299 303 306 311 317 318 313 314 319 322 326 328 326 329 332 332 332 334 327 335 333 333 331 327 327 323 322 323 311 322 316 320 318 314 288 311 313 311 310 295 278
281 286 293 298 301 306 309 310 315 321 313 319 321 325 327 329 325 330 328 331 333 334 333 331 331 330 326 326 324 323 322 318 319 319 318 312 310 315 313 313 312 313 311 308
279 286 294 296 299 301 304 306 313 314 313 313 321 323 318 325 327 329 329 329 329 333 331 329 329 329 325 325 323 320 323 318 311 318 316 317 314 314 316 308 311 313 311 306
287 288 292 294 298 300 301 306 310 314 319 317 319 322 319 322 326 326 326 327 329 330 328 327 328 327 325 324 322 320 320 319 319 318 316 316 315 312 305 314 314 313 310 310
283 285 288 291 295 298 299 306 304 314 310 316 314 319 320 322 324 324 324 325 327 329 326 326 326 325 324 322 323 320 320 321 320 317 317 316 315 314 314 314 313 310 310 310
283 286 290 292 295 297 302 304 309 313 311 314 315 317 318 321 322 315 324 324 326 326 325 325 325 323 322 323 323 321 320 321 320 318 317 316 314 314 313 312 310 309 308 308
281 284 288 293 296 300 301 303 304 310 311 313 316 317 319 320 321 321 324 323 323 323 323 324 323 323 319 323 318 319 322 320 318 317 316 316 315 313 311 307 308 306 306 306
283 289 291 297 297 297 309 299 306 308 311 313 314 316 318 318 315 320 321 321 322 321 322 323 321 321 320 321 321 321 319 317 317 317 317 315 315 312 309 307 304 305 305 301
284 288 291 294 298 299 305 304 308 311 310 312 314 316 318 318 318 320 320 320 320 319 320 321 320 320 320 318 320 318 318 319 318 317 317 315 314 311 310 308 305 302 302 299
282 288 290 292 300 305 301 306 306 306 309 310 314 316 315 316 316 317 318 318 318 317 320 319 318 318 319 320 317 318 319 318 317 315 314 311 311 309 304 301 299 298 289 285